FW4043 Weather Reports


time (UTC)temp
C
wind
direction
speed
KPH
gust
KPH
rain 1hr
cm
rain 24hr
cm
rain mn
cm
humidity
%
barometer
mb
20260504024513 17 123 9.7 11.3 0.00 0.00 0.00 70 1020.1
20260504023010 17 126 9.7 11.3 0.00 0.00 0.00 69 1020.0
20260504021516 18 125 8.0 12.9 0.00 0.00 0.00 68 1020.0
20260504020019 18 149 9.7 14.5 0.00 0.00 0.00 67 1019.9
20260504014530 19 140 8.0 11.3 0.00 0.00 0.00 65 1019.9
20260504013046 20 156 9.7 14.5 0.00 0.00 0.00 64 1019.9
20260504011543 20 134 8.0 12.9 0.00 0.00 0.00 61 1019.8
20260504010047 21 122 9.7 16.1 0.00 0.00 0.00 61 1019.8
20260504004616 21 138 8.0 12.9 0.00 0.00 0.00 60 1019.7
20260504003004 22 140 9.7 16.1 0.00 0.00 0.00 58 1019.8
20260504001514 22 150 9.7 14.5 0.00 0.00 0.00 57 1019.8
20260504000019 22 135 9.7 17.7 0.00 0.00 0.00 55 1019.7
20260503234523 23 170 9.7 17.7 0.00 0.00 0.00 54 1019.9
20260503233031 23 171 11.3 20.9 0.00 0.00 0.00 52 1019.8
20260503231531 23 168 12.9 22.5 0.00 0.00 0.00 52 1020.2
20260503230044 24 137 14.5 20.9 0.00 0.00 0.00 53 1020.1
20260503224547 24 163 12.9 20.9 0.00 0.00 0.00 52 1020.3
20260503223058 24 151 12.9 20.9 0.00 0.00 0.00 53 1020.4
20260503221556 24 107 9.7 17.7 0.00 0.00 0.00 52 1020.7
20260503221503 24 119 9.7 17.7 0.00 0.00 0.00 52 1020.8
20260503220043 25 215 14.5 22.5 0.00 0.00 0.00 51 1020.7
20260503214557 24 132 8.0 17.7 0.00 0.00 0.00 51 1020.7
20260503213056 25 133 6.4 19.3 0.00 0.00 0.00 49 1021.0
20260503211504 25 165 11.3 19.3 0.00 0.00 0.00 49 1021.1
20260503210010 25 147 11.3 19.3 0.00 0.00 0.00 50 1021.5
20260503204511 25 131 9.7 16.1 0.00 0.00 0.00 48 1021.5
20260503203023 25 105 11.3 16.1 0.00 0.00 0.00 47 1021.6
20260503201505 25 86 9.7 20.9 0.00 0.00 0.00 48 1021.9
20260503200009 25 138 14.5 24.1 0.00 0.00 0.00 45 1022.2
20260503194509 25 146 11.3 19.3 0.00 0.00 0.00 48 1022.4
20260503193030 25 128 17.7 25.7 0.00 0.00 0.00 47 1022.6
20260503191515 25 109 3.2 17.7 0.00 0.00 0.00 51 1022.8
20260503190022 24 46 11.3 22.5 0.00 0.00 0.00 50 1023.0
20260503184605 24 119 8.0 20.9 0.00 0.00 0.00 50 1023.3
20260503183102 24 88 6.4 16.1 0.00 0.00 0.00 53 1023.5
20260503183001 24 55 3.2 16.1 0.00 0.00 0.00 53 1023.5
20260503181509 24 147 9.7 19.3 0.00 0.00 0.00 52 1023.8
20260503180009 24 79 4.8 17.7 0.00 0.00 0.00 54 1024.0
20260503174513 23 105 11.3 20.9 0.00 0.00 0.00 52 1024.3
20260503173021 23 126 9.7 16.1 0.00 0.00 0.00 54 1024.5
20260503171526 23 97 9.7 17.7 0.00 0.00 0.00 57 1024.8
20260503160110 22 83 8.0 19.3 0.00 0.00 0.00 63 1024.7
20260503081546 15 61 0.0 0.0 0.00 0.00 0.00 73 1022.5
20260503071504 16 61 0.0 1.6 0.00 0.00 0.00 71 1022.5
20260503054533 17 61 0.0 0.0 0.00 0.00 0.00 70 1022.7
20260503053033 17 61 0.0 0.0 0.00 0.00 0.00 70 1022.5
20260503051537 17 61 0.0 0.0 0.00 0.00 0.00 71 1022.5
20260503050026 17 61 0.0 0.0 0.00 0.00 0.00 69 1022.3
20260503044544 17 61 0.0 0.0 0.00 0.00 0.00 69 1022.3
20260503043034 18 61 0.0 0.0 0.00 0.00 0.00 68 1022.2
20260503041520 19 61 0.0 0.0 0.00 0.00 0.00 69 1022.1
20260503040026 18 61 0.0 0.0 0.00 0.08 0.00 69 1022.1
20260503034536 18 61 0.0 0.0 0.00 0.08 0.00 66 1021.9
20260503033035 18 61 0.0 0.0 0.00 0.08 0.00 65 1022.0
20260503031551 18 61 0.0 0.0 0.00 0.08 0.00 65 1021.7
20260503030051 18 61 0.0 0.0 0.00 0.08 0.00 65 1021.7